GFSGL_500_spd_294.txt.gz
Wind_Speed
39 40 41 38 36 42 43 52 41 40 39 41 30 30 42 38 34 34 37 37 37 39 40 39 36 36 36 36 38 36 35 36 35 32 31 30 30 29 29 31 30 27 25
42 46 40 54 44 41 37 38 38 36 34 27 25 32 39 41 32 40 39 41 42 44 43 44 42 41 39 39 37 39 41 40 37 33 34 34 35 35 36 35 34 33 32
45 50 52 49 41 42 36 32 34 33 38 42 39 42 40 44 43 44 47 48 49 52 51 49 47 48 46 44 44 40 38 40 42 40 35 35 36 39 41 40 37 35 34
47 41 37 43 42 43 37 44 46 48 45 43 42 45 49 53 51 48 51 52 55 57 58 57 55 53 52 50 49 46 45 44 44 43 42 40 39 40 40 40 39 37 33
46 53 52 55 45 47 51 51 49 50 50 54 55 57 56 57 60 61 64 67 66 64 63 65 64 63 61 61 60 55 54 53 48 47 44 42 40 42 45 42 40 38 34
53 55 54 53 52 52 55 59 61 62 65 67 69 69 68 67 69 71 73 77 77 76 73 70 68 68 67 65 64 66 63 59 55 53 48 45 42 43 44 44 44 41 35
54 55 54 53 53 56 59 61 64 67 70 72 74 74 75 75 76 78 80 81 80 78 78 76 73 70 70 68 66 66 66 67 64 60 56 51 46 47 48 46 46 45 38
53 54 56 58 61 62 64 66 68 70 72 74 75 77 78 78 79 81 83 84 84 82 82 81 81 77 73 72 73 71 68 67 65 66 64 61 57 52 52 50 48 45 40
55 57 58 59 59 61 62 64 67 69 71 74 75 78 81 81 83 85 86 87 86 84 85 84 83 82 80 79 79 75 74 69 68 66 64 63 61 59 57 55 52 51 43
53 54 56 57 59 60 61 64 67 70 74 77 79 81 83 86 83 85 88 89 87 87 84 82 82 82 82 83 81 80 79 72 74 72 68 64 58 59 60 60 57 54 50
49 50 52 54 56 56 58 63 67 69 70 71 69 65 63 63 63 65 67 69 70 69 68 70 72 78 83 84 84 83 77 75 78 77 74 70 67 56 56 60 61 57 55
47 47 48 49 52 53 57 59 60 59 59 60 59 57 58 56 54 58 58 60 62 62 58 57 60 63 69 74 80 82 80 77 77 76 75 71 69 64 55 56 57 59 57
40 43 46 49 52 53 53 47 49 46 48 47 47 53 58 62 63 59 59 63 62 59 58 53 51 54 57 60 64 71 76 80 79 76 73 71 68 66 64 57 58 54 55
43 46 49 52 51 48 43 45 46 48 49 48 48 50 50 51 49 52 55 58 56 57 59 60 56 53 58 59 57 60 59 63 71 75 72 68 68 66 65 61 57 54 51
45 47 48 45 40 39 42 43 41 41 46 46 44 40 39 40 36 31 35 38 48 52 58 58 61 67 60 58 60 56 55 54 54 64 67 66 65 66 64 62 58 54 53
41 37 34 33 34 38 36 32 33 33 38 43 47 40 35 36 43 29 31 29 35 36 39 42 43 46 49 52 56 60 53 49 49 49 60 63 61 62 62 61 57 55 55
27 27 28 30 29 26 27 26 21 25 28 33 38 35 30 36 41 27 26 41 35 32 31 32 31 30 32 37 44 53 50 44 43 42 47 58 59 58 60 59 57 57 57
17 16 16 16 15 18 20 21 23 25 27 30 33 37 35 33 37 42 37 31 40 30 31 30 26 23 20 20 29 42 49 44 40 38 43 50 57 56 58 59 59 57 56
13 13 12 15 17 19 21 23 23 24 26 29 31 33 35 33 36 32 32 37 39 27 26 28 22 17 14 14 18 24 35 40 37 37 38 45 51 54 55 56 56 56 57
15 16 16 17 18 17 19 21 22 22 23 24 28 30 34 33 37 31 35 22 31 30 24 27 18 14 10 9 14 20 27 33 36 38 38 39 48 50 52 54 54 56 55
13 13 13 13 16 19 22 24 23 22 22 21 24 28 32 34 38 38 32 26 24 22 19 8 8 17 11 11 13 18 23 27 30 31 34 35 38 42 48 49 50 55 52
13 14 16 18 20 23 24 25 24 23 23 24 22 20 24 29 31 36 37 38 32 17 11 11 7 5 18 18 11 15 20 25 29 26 27 32 32 48 35 31 36 43 48
18 20 22 23 24 24 25 26 27 27 27 27 29 28 23 22 25 27 31 33 30 30 32 28 26 14 9 8 11 15 11 18 21 29 31 26 42 30 37 36 43 43 49
21 21 21 21 23 24 24 25 27 28 29 29 30 31 33 32 29 28 26 24 29 29 28 26 23 24 26 13 14 10 11 13 17 17 18 20 31 22 22 26 21 16 26
22 23 25 26 27 28 28 28 29 30 32 33 34 33 33 34 34 31 31 29 24 22 22 22 24 26 21 19 22 19 14 6 10 15 17 21 21 20 21 19 21 22 26
25 27 28 29 31 31 32 33 33 33 31 31 32 34 35 33 34 34 32 31 34 34 28 22 21 22 20 22 23 21 17 15 12 19 18 18 17 20 23 26 30 32 34

GFSGL_500_spd_300.txt.gz
Wind_Speed
32 33 34 34 34 37 38 40 41 42 41 44 43 40 41 41 37 36 34 35 31 27 34 41 36 35 31 35 38 36 36 36 31 25 27 30 31 33 32 28 28 29 29
38 36 39 38 37 41 44 44 42 42 46 46 42 47 42 44 35 33 37 35 31 34 33 33 35 40 45 46 43 41 41 41 40 36 33 34 34 35 35 36 33 31 32
40 40 41 44 45 47 47 46 47 44 40 44 39 34 35 34 38 40 42 40 41 43 48 41 43 45 43 51 51 48 49 47 45 45 42 41 40 39 38 37 36 37 35
42 41 43 46 47 48 49 48 46 41 43 46 47 48 46 42 38 45 45 47 47 47 52 53 54 52 50 50 52 53 54 57 56 53 51 49 46 44 44 44 43 41 38
44 45 44 47 47 51 48 49 47 48 50 50 48 46 43 45 46 48 50 51 55 53 54 57 60 59 59 59 59 58 62 61 61 60 60 58 53 53 52 49 49 47 45
45 46 47 48 48 50 50 50 51 50 50 52 53 53 53 54 54 54 55 55 58 59 61 63 65 65 65 65 65 67 67 66 65 64 64 62 62 59 58 55 54 56 52
38 37 37 40 50 49 50 51 51 52 52 52 53 53 53 55 57 58 61 63 64 65 66 68 68 69 70 71 70 72 72 74 74 72 68 66 67 65 65 63 60 60 58
48 49 50 52 53 53 53 53 53 54 54 54 53 54 54 55 57 58 60 61 62 65 67 69 68 68 69 69 70 72 75 75 75 77 77 73 70 70 70 70 68 64 60
48 51 51 53 54 54 55 55 55 54 53 53 51 50 51 53 55 56 58 59 62 65 67 69 69 64 60 60 63 63 66 72 78 80 80 77 76 72 73 74 72 71 65
49 50 51 52 52 52 53 53 52 50 48 48 49 50 52 53 56 59 61 62 60 57 58 59 62 59 55 55 56 59 60 61 71 72 75 81 83 78 75 76 73 75 71
49 49 49 49 48 47 47 46 46 45 45 46 48 49 52 54 53 52 55 56 55 55 55 50 49 48 43 45 42 47 51 57 63 67 72 68 76 84 83 78 77 77 75
51 51 50 48 48 47 46 45 43 41 42 45 48 49 49 47 46 50 54 54 50 48 50 49 48 49 47 42 44 52 50 52 57 65 66 66 67 70 84 85 82 80 77
47 48 46 43 40 38 37 37 37 40 42 43 44 40 39 40 43 44 44 46 46 42 43 48 49 42 36 38 46 40 45 52 57 60 64 64 62 63 66 79 86 82 80
32 33 34 32 30 31 32 35 36 37 38 35 34 34 36 31 31 33 34 37 38 35 41 40 47 43 40 38 41 46 50 50 52 57 58 60 62 59 54 62 70 83 84
22 21 23 26 26 28 30 30 30 29 29 27 26 27 26 24 24 24 28 35 36 35 34 34 31 31 37 39 36 43 47 46 47 48 48 50 56 59 54 52 55 59 72
21 19 17 18 19 19 18 20 20 16 19 25 27 26 21 23 25 27 30 33 34 33 34 30 31 36 39 33 30 40 40 43 42 42 39 40 41 49 44 47 45 47 53
16 13 12 11 11 10 11 13 16 22 22 24 24 26 26 27 28 26 24 27 30 32 34 40 38 30 35 25 27 31 34 36 34 31 26 27 32 35 42 37 37 38 42
19 19 18 16 15 15 15 15 14 16 19 22 27 27 27 26 28 29 27 26 28 30 31 34 38 35 32 30 31 26 30 29 26 20 13 11 17 24 29 29 31 35 37
17 16 14 14 14 15 15 16 18 21 22 22 22 26 28 29 31 33 32 32 31 30 30 30 31 35 39 38 31 29 29 27 23 14 2 8 12 14 20 25 29 33 37
16 16 17 17 18 19 20 21 22 22 23 24 25 24 26 30 31 32 34 35 36 34 29 29 29 30 32 35 37 31 22 29 24 19 14 10 8 15 19 26 29 32 33
21 20 20 21 20 20 21 22 23 25 27 28 29 27 27 29 30 31 31 30 31 32 31 28 29 29 31 31 29 28 26 21 17 19 16 17 12 19 22 21 19 23 35
18 18 19 21 22 23 24 25 26 27 28 29 31 29 28 27 28 32 29 29 28 29 30 31 29 30 32 32 33 28 23 23 22 19 6 13 15 20 16 20 28 28 26
22 22 22 22 22 23 23 23 26 28 30 29 28 28 29 30 29 31 32 33 31 27 28 28 30 33 31 31 35 33 26 21 20 20 18 22 23 13 14 12 13 24 23
20 22 21 21 23 26 26 26 29 30 30 30 31 32 32 30 30 32 31 33 33 27 29 29 30 30 32 34 29 32 29 23 23 16 18 11 15 11 12 13 22 26 24
25 25 26 27 27 30 30 31 32 30 31 33 35 33 31 33 33 35 35 33 33 29 28 30 31 34 33 33 35 32 32 26 22 21 20 20 24 13 8 9 18 21 20
26 27 29 29 29 33 32 32 35 37 37 41 43 42 40 39 39 39 39 37 36 35 37 35 34 34 34 34 33 33 32 33 29 23 22 20 20 22 21 14 10 11 17

GFSGL_500_spd_303.txt.gz
Wind_Speed
25 25 25 28 31 34 35 38 37 38 37 39 41 38 43 42 42 42 41 42 41 39 36 34 37 36 34 36 39 39 39 37 28 30 33 33 32 31 32 31 29 29 29
31 33 34 35 37 38 43 31 44 47 44 44 41 44 44 44 45 37 30 31 30 34 35 37 38 39 37 36 41 41 38 44 42 35 39 40 38 39 37 38 36 35 31
39 39 41 42 42 43 46 48 48 48 47 46 45 47 46 42 38 37 37 44 40 41 40 42 43 47 48 52 50 49 53 48 48 47 46 48 45 44 44 43 43 42 41
38 40 43 45 44 45 45 46 49 49 50 48 46 45 43 42 46 48 44 44 44 44 44 47 50 53 54 53 53 56 57 55 55 55 52 50 53 51 46 46 48 48 47
47 47 47 51 51 52 53 52 51 47 50 51 49 48 48 49 50 50 51 51 51 51 52 53 55 57 58 60 62 62 62 61 61 61 61 58 56 59 61 59 57 55 54
50 54 54 54 53 52 51 51 52 51 51 49 48 50 50 49 50 52 53 53 54 55 56 57 58 60 62 64 64 64 66 67 68 69 67 66 65 65 63 63 62 61 61
47 48 46 41 35 39 42 41 40 40 50 55 53 52 52 53 53 54 54 56 56 56 57 60 61 63 67 69 68 67 68 70 72 73 72 72 72 71 72 68 67 67 65
49 48 49 48 48 48 52 56 57 59 54 54 53 52 52 53 52 52 52 52 54 57 60 63 63 65 67 69 68 69 70 71 73 73 71 71 74 76 77 78 75 72 71
47 46 46 48 50 51 52 53 54 53 54 54 54 54 52 51 51 51 52 53 55 57 60 63 65 67 69 71 70 68 64 62 64 67 69 71 74 76 77 79 79 80 76
45 47 48 49 50 51 51 51 52 51 51 51 52 49 47 47 48 51 53 54 55 58 61 61 60 61 61 59 60 58 54 55 53 53 55 57 60 64 72 79 82 84 81
42 44 47 51 54 55 53 51 50 48 47 47 47 46 47 48 49 50 51 54 55 53 52 54 55 57 56 53 51 46 43 47 49 48 52 51 56 56 58 66 72 77 82
38 38 41 47 51 52 52 48 45 45 45 44 44 43 44 45 47 45 43 43 43 45 47 50 50 49 49 46 45 42 42 38 40 45 47 51 55 57 59 63 67 73 79
30 34 39 39 36 35 35 37 38 36 35 34 33 36 39 39 38 36 34 35 35 33 35 36 37 42 41 43 38 33 31 34 37 39 42 49 59 62 60 65 70 72 72
30 30 33 36 33 30 28 28 30 31 30 30 32 33 33 32 27 28 27 27 27 28 28 28 29 33 36 42 36 35 34 35 36 36 41 54 55 60 62 61 64 67 72
23 23 25 28 28 26 25 24 25 25 26 27 26 24 25 22 22 22 22 26 25 24 25 26 26 27 31 30 33 41 41 38 35 39 43 47 50 53 55 54 55 61 63
22 22 22 23 23 22 19 16 16 17 20 20 18 19 20 20 21 24 24 25 25 27 31 30 31 30 30 29 30 29 26 32 39 41 41 41 43 45 42 44 45 48 51
22 21 22 22 22 20 19 18 17 16 14 19 22 24 23 24 24 24 27 28 29 30 32 33 35 34 32 32 30 31 31 29 29 38 38 36 35 36 34 26 27 32 36
18 17 18 18 18 18 18 17 17 17 19 20 26 28 27 29 32 31 30 31 32 34 35 32 31 32 33 35 36 34 35 37 28 32 35 32 31 40 26 20 20 23 27
21 22 22 22 22 21 22 23 22 21 21 22 21 24 27 29 33 34 34 34 35 34 36 33 28 30 32 32 34 35 34 36 38 36 32 35 25 20 21 17 17 21 27
23 24 23 23 22 22 22 23 23 23 24 26 26 27 27 28 31 35 37 38 36 33 32 33 35 33 31 32 32 34 35 31 31 34 35 30 31 19 20 20 20 21 22
19 21 22 23 23 22 22 22 22 21 22 25 27 28 28 27 30 33 36 36 34 33 37 34 35 31 31 32 32 32 34 37 36 31 32 31 26 25 24 25 27 28 25
18 20 23 23 24 24 25 26 27 26 27 28 30 28 29 30 34 35 37 38 37 37 36 36 35 36 33 34 36 35 33 32 33 33 32 30 30 26 23 25 25 21 28
20 23 24 24 26 27 26 27 28 29 29 28 29 28 27 29 32 33 34 36 39 40 40 40 39 38 38 36 36 36 34 37 35 29 28 30 28 28 23 12 7 18 19
23 23 25 25 28 29 28 30 32 33 34 35 35 36 38 38 39 40 41 41 41 42 42 41 40 42 41 40 38 38 36 37 36 38 29 26 29 30 28 20 16 7 11
22 24 26 28 30 31 31 32 34 35 36 38 41 44 45 47 47 47 45 47 48 50 46 43 42 42 43 43 40 38 39 36 38 38 38 30 23 26 29 25 20 10 16
28 29 30 31 33 35 38 40 42 41 41 40 45 46 46 49 53 55 56 55 53 51 48 47 46 43 44 44 41 39 41 40 40 46 41 38 32 27 26 27 25 22 18

GFSGL_500_spd_306.txt.gz
Wind_Speed
39 34 39 21 24 25 26 27 32 35 37 40 36 36 37 39 39 38 38 37 41 44 38 40 41 39 36 37 38 41 39 37 33 35 37 36 35 36 36 36 34 34 33
22 22 32 28 25 29 26 31 35 36 39 51 43 42 44 44 43 43 45 45 44 44 34 34 37 38 38 38 39 39 40 40 38 31 34 41 42 43 43 43 43 41 38
40 36 31 30 31 34 37 38 38 40 41 43 42 45 48 46 45 44 43 42 43 43 42 40 42 43 43 45 45 44 46 46 48 46 45 48 46 48 48 49 50 50 46
38 37 40 42 42 43 41 41 45 46 48 48 47 47 48 49 48 47 45 45 45 48 50 49 53 52 51 50 51 53 52 50 54 56 55 56 54 52 54 53 54 56 58
45 44 41 40 41 44 48 46 46 48 50 50 51 49 50 46 49 51 51 49 49 50 50 52 54 54 55 57 58 58 58 56 56 58 61 62 62 61 59 57 57 56 59
48 48 48 48 46 44 44 44 44 47 43 45 45 47 52 52 52 49 52 53 54 54 53 54 55 57 57 58 61 62 64 64 63 64 64 65 65 66 67 67 64 61 59
49 49 48 45 43 43 44 45 42 44 43 48 49 49 52 49 53 55 54 52 53 54 56 57 57 57 59 60 63 65 67 66 65 65 65 65 67 69 70 72 73 70 67
45 44 44 45 47 46 44 44 46 47 51 52 57 60 60 60 57 56 52 49 49 49 50 53 53 54 56 59 60 61 62 64 67 68 69 68 68 69 71 72 72 72 73
40 40 41 43 46 46 47 47 48 49 52 55 55 55 56 56 54 51 50 47 47 47 50 52 54 57 61 63 63 63 63 65 68 67 66 67 68 69 70 70 70 71 72
32 35 40 44 44 44 45 48 51 55 58 57 56 55 52 48 46 44 43 43 45 48 52 55 57 58 59 61 63 60 55 50 48 48 52 53 54 55 54 56 57 58 64
31 31 34 35 35 36 40 48 51 51 51 48 49 46 44 43 43 43 43 44 47 49 51 50 49 47 47 48 54 53 48 45 46 47 50 50 50 52 52 51 52 52 50
33 36 37 35 34 36 38 41 44 41 39 39 40 40 39 40 41 42 40 41 44 44 43 42 39 37 37 34 38 44 45 45 42 40 34 36 37 40 43 44 45 47 54
36 38 36 32 31 30 32 34 36 34 32 30 33 34 36 36 37 37 36 37 37 34 34 34 33 32 32 30 29 29 33 35 37 37 36 36 36 38 39 41 44 47 50
34 31 28 26 26 26 27 28 29 29 28 25 24 26 26 28 30 29 27 28 28 27 30 32 33 32 32 29 28 26 23 25 26 29 33 37 37 37 40 43 48 52 56
22 22 22 23 23 25 25 27 27 26 23 21 20 19 18 21 25 23 22 23 24 24 27 28 31 33 35 35 34 32 27 24 22 24 27 31 36 38 40 46 53 52 52
18 18 19 19 20 22 23 24 23 21 20 18 17 18 16 15 17 20 20 22 25 25 27 27 28 30 32 32 31 31 31 31 30 27 27 29 31 30 34 42 44 48 49
18 20 21 23 24 25 26 26 25 26 23 23 24 21 24 22 22 24 24 24 27 27 27 29 30 30 27 29 31 32 30 31 32 34 34 30 29 31 32 34 37 44 40
22 24 25 24 24 23 23 23 22 21 21 24 24 23 26 28 27 29 31 31 33 33 32 32 32 32 30 29 33 36 33 31 30 32 34 35 32 34 32 34 34 34 33
22 22 21 21 21 22 22 22 22 21 20 20 20 23 26 27 27 29 31 32 33 34 36 36 35 34 33 35 34 33 36 34 33 35 36 37 36 33 34 32 29 33 36
21 20 19 20 21 21 21 21 22 24 25 25 26 28 29 29 28 28 32 35 36 36 36 37 37 38 39 39 39 38 37 39 38 36 37 41 39 36 35 32 35 35 39
17 18 19 20 21 21 23 24 26 26 27 28 28 31 32 30 30 32 33 36 38 39 40 41 42 41 41 41 39 40 39 40 41 40 35 34 39 40 33 35 34 35 30
19 20 23 23 25 26 28 30 31 31 32 33 34 34 35 36 35 36 38 40 42 45 47 44 41 41 43 46 46 45 43 42 40 40 38 39 36 37 37 31 34 37 30
20 23 24 27 28 29 30 31 31 32 33 35 38 39 40 40 39 40 42 43 43 45 48 49 49 50 47 47 48 46 45 44 42 41 41 38 40 35 34 32 32 32 29
21 23 24 27 30 32 35 37 38 39 41 45 45 46 47 47 47 41 43 47 50 52 54 53 54 53 45 45 46 45 47 48 45 42 43 43 41 40 34 32 33 33 28
26 27 29 30 32 36 40 42 42 43 48 49 49 53 55 52 51 50 53 53 59 59 60 54 53 48 42 45 46 47 47 46 47 45 45 45 44 41 41 36 30 32 27
30 32 35 37 39 43 45 46 46 50 49 51 51 59 56 59 60 61 53 55 59 60 52 52 52 57 63 62 51 45 43 48 44 53 54 51 48 44 40 37 34 29 27